Regional Weather Roundup
Issued by NWS

Home | Current Version | Previous Version | Graphics & Text | Print | Product List | Glossary Off
Versions: 1 2 3 4 5 6 7 8 9 10 11 12 13 14 15 16 17 18 19 20 21 22 23 24 25 26 27 28 29 30 31 32 33 34 35 36 37 38 39 40 41 42 43 44 45 46 47 48 49 50

000
ASUS43 KTOP 271808
RWRKS

WEATHER ROUNDUP FOR KANSAS
NATIONAL WEATHER SERVICE GOODLAND KS
100 PM CDT TUE SEP 27 2016

NOTE:  "FAIR" INDICATES FEW OR NO CLOUDS BELOW 12,000 FEET WITH NO
SIGNIFICANT WEATHER AND/OR OBSTRUCTIONS TO VISIBILITY.

KSZ001>006-013>018-027>032-041>047-271900-
NORTHWEST KANSAS

CITY           SKY/WX    TMP DP  RH WIND       PRES   REMARKS
GOODLAND       SUNNY     79  37  22 VRB6      30.14F
6HR MIN TEMP:  45; 6HR MAX TEMP:  80;

HAYS           SUNNY     81  46  30 NW8       30.06F
HILL CITY      SUNNY     81  49  32 N7        30.07F
6HR MIN TEMP:  47; 6HR MAX TEMP:  81;

RUSSELL        SUNNY     79  50  36 N9        30.04F
6HR MIN TEMP:  46; 6HR MAX TEMP:  79;

$$

KSZ061>065-074>080-084>089-271900-
SOUTHWEST KANSAS

CITY           SKY/WX    TMP DP  RH WIND       PRES   REMARKS
DODGE CITY     SUNNY     84  39  20 VRB6      30.10F
6HR MIN TEMP:  50; 6HR MAX TEMP:  85;

ELKHART          N/A     81  41  24 NW2         N/A
GARDEN CITY    SUNNY     82  36  19 VRB6      30.11F
6HR MIN TEMP:  42; 6HR MAX TEMP:  82;

GREAT BEND     SUNNY     81  45  28 W9        30.05F
LIBERAL        SUNNY     82  39  21 NW5       30.13F
PRATT          SUNNY     81  41  24 W7        30.07F
6HR MIN TEMP:  45; 6HR MAX TEMP:  81;

$$

KSZ066>073-081>083-090>101-271900-
SOUTHEAST KANSAS

CITY           SKY/WX    TMP DP  RH WIND       PRES   REMARKS
CHANUTE        SUNNY     77  51  40 SW9       30.03F
6HR MIN TEMP:  50; 6HR MAX TEMP:  77;

COFFEYVILLE    SUNNY     78  49  35 SW12      30.06F
6HR MIN TEMP:  47; 6HR MAX TEMP:  79;

HUTCHINSON     SUNNY     78  50  37 CALM      30.05F
6HR MIN TEMP:  54; 6HR MAX TEMP:  78;

MEDICINE LODGE   N/A     77  50  38 S5        30.05F
NEWTON         SUNNY    N/A N/A N/A VRB3      30.05F
PARSONS        SUNNY     78  51  38 SW10      30.06F
6HR MIN TEMP:  45; 6HR MAX TEMP:  78;

WICHITA INTL   SUNNY     76  54  46 VRB3      30.05F
6HR MIN TEMP:  50; 6HR MAX TEMP:  76;

WICHITA JABRA  SUNNY     75  51  43 SW3       30.04F
6HR MIN TEMP:  57; 6HR MAX TEMP:  75;

WICHITA MCCONL SUNNY     75  52  44 W5        30.05F
WINFIELD       SUNNY     76  53  44 SW12      30.06F
6HR MIN TEMP:  50; 6HR MAX TEMP:  77;

$$

KSZ007>012-019>026-033>040-048>060-102>105-271900-
NORTHEAST KANSAS

CITY           SKY/WX    TMP DP  RH WIND       PRES   REMARKS
CONCORDIA      SUNNY     79  46  31 W6        30.02F
6HR MIN TEMP:  54; 6HR MAX TEMP:  79;

EMPORIA        SUNNY     77  52  41 W6        30.02F
6HR MIN TEMP:  54; 6HR MAX TEMP:  77;

LAWRENCE       SUNNY     75  52  44 W6        30.00F
6HR MIN TEMP:  47; 6HR MAX TEMP:  75;

MANHATTAN      SUNNY     78  51  38 W6        30.01F
6HR MIN TEMP:  48; 6HR MAX TEMP:  78;

MARYSVILLE     SUNNY     79  48  34 W7        30.00F
OLATHE IND     SUNNY     75  52  44 W7        30.01F
6HR MIN TEMP:  50; 6HR MAX TEMP:  75;

OLATHE EXE     SUNNY     73  49  42 SW8       30.00F
6HR MIN TEMP:  51; 6HR MAX TEMP:  73;

SALINA         SUNNY     81  52  36 NW5       30.03F
6HR MIN TEMP:  51; 6HR MAX TEMP:  81;

TOPEKA BILLARD SUNNY     75  51  43 W6        30.00F
6HR MIN TEMP:  49; 6HR MAX TEMP:  76;

TOPEKA FORBES  SUNNY     78  52  40 W5        30.01F
6HR MIN TEMP:  50; 6HR MAX TEMP:  78;

$$




USA.gov is the U.S. government's official web portal to all federal, state and local government web resources and services.